Regional Weather Roundup
Issued by NWS

Home | Current Version | Previous Version | Text Only | Print | Product List | Glossary Off
Versions: 1 2 3 4 5 6 7 8 9 10 11 12 13 14 15 16 17 18 19 20 21 22 23 24 25 26 27 28 29 30 31 32 33 34 35 36 37 38 39 40 41 42 43 44 45 46 47 48 49 50

000
ASUS43 KOAX 141110
RWRNE

WEATHER ROUNDUP FOR NEBRASKA
NATIONAL WEATHER SERVICE OMAHA NE
500 AM CST THU DEC 14 2017

NOTES: SATELLITE DATA IS BEING USED TO AUGMENT CLOUD COVER ABOVE
       12000 FEET.
       "FAIR" INDICATES FEW OR NO CLOUDS BELOW 12,000 FEET WITH NO
       SIGNIFICANT WEATHER AND/OR OBSTRUCTIONS TO VISIBILITY.


NEZ001>004-019>022-054>056-141200-
NEBRASKA PANHANDLE

CITY           SKY/WX    TMP DP  RH WIND       PRES   REMARKS
SCOTTSBLUFF    MOCLDY    35  23  61 NW15      30.15R WCI  25
ALLIANCE       CLOUDY    25  21  85 NW8       30.09S WCI  16
CHADRON        CLOUDY    37  24  59 W20G28    30.11S WCI  27
GORDON         CLOUDY    33  31  94 W9        30.05F WCI  25
KIMBALL        CLOUDY    32  23  68 NW13G21   30.14R WCI  22
SIDNEY         CLOUDY    34  22  61 NW18      30.11F WCI  23
$$

NEZ057>060-069>072-079>082-141200-
SOUTHWEST NEBRASKA

CITY           SKY/WX    TMP DP  RH WIND       PRES   REMARKS
NORTH PLATTE   CLOUDY    37  26  64 NW10      30.08F WCI  30
IMPERIAL       CLOUDY    36  27  69 W9        30.12F WCI  29
LEXINGTON      CLOUDY    32  23  70 W3        30.07S
MCCOOK         CLOUDY    37  23  56 W9        30.11S WCI  30
OGALLALA       CLOUDY    35  25  66 W6        30.10S WCI  30
$$

NEZ005>010-023>029-035>040-094-141200-
NORTH CENTRAL NEBRASKA

CITY           SKY/WX    TMP DP  RH WIND       PRES   REMARKS
VALENTINE      CLOUDY    35  32  88 W12       30.03F WCI  27
AINSWORTH      CLOUDY    35  30  82 NW14G23   30.02F WCI  26
BROKEN BOW     MOCLDY    32  23  69 W7        30.04F WCI  26
O`NEILL        CLOUDY    31  27  84 W6        30.02S WCI  25
ORD            CLOUDY    31  25  78 W9        30.03F WCI  23
THEDFORD       LGT SNOW  35  32  90 NW10      30.06S WCI  27
$$

NEZ041-046>049-061>064-073>077-083>087-141200-
SOUTH CENTRAL NEBRASKA

CITY           SKY/WX    TMP DP  RH WIND       PRES   REMARKS
GRAND ISLAND   CLOUDY    30  26  85 W8        30.06S WCI  22
AURORA         CLOUDY    30  25  81 W9        30.05S WCI  22
HASTINGS       CLOUDY    30  24  78 W8        30.06F WCI  22
HEBRON         CLOUDY    35  27  73 NW8       30.07F WCI  28
HOLDREGE       CLOUDY    31  26  83 W3        30.07S
YORK           CLOUDY    32  27  80 CALM      30.05S
$$

NEZ011>018-030>034-042>045-141200-
NORTHEAST NEBRASKA

CITY           SKY/WX    TMP DP  RH WIND       PRES   REMARKS
NORFOLK        CLOUDY    34  26  72 W8        30.00F WCI  27
ALBION         CLOUDY    32  25  76 NW5       30.02F WCI  27
BLAIR          CLOUDY    33  29  86 NW5       30.01S WCI  29
COLUMBUS       CLOUDY    33  25  72 W6        30.03F WCI  28
FREMONT        CLOUDY    33  28  79 NW3       30.03S
TEKAMAH        CLOUDY    33  26  75 N3        30.03S
WAYNE          CLOUDY    33  22  65 W5        30.01S WCI  28
$$

NEZ050>053-065>068-078-088>093-141200-
SOUTHEAST NEBRASKA

CITY           SKY/WX    TMP DP  RH WIND       PRES   REMARKS
LINCOLN        CLOUDY    37  23  56 NW6       30.06R WCI  32
OMAHA EPPLEY   CLOUDY    35  27  72 NW5       30.03R WCI  31
BEATRICE       CLOUDY    36  27  69 NW8       30.05R WCI  29
FALLS CITY     CLOUDY    36  25  64 N6        30.03S WCI  31
NEBRASKA CITY  CLOUDY    35  27  73 N6        30.03R WCI  30
PLATTSMOUTH    CLOUDY    34  28  79 NW6       30.03S WCI  29
$$

NEZ044-045-051>053-067-141200-
OMAHA AREA

CITY           SKY/WX    TMP DP  RH WIND       PRES   REMARKS
OMAHA EPPLEY   CLOUDY    35  27  72 NW5       30.03R WCI  31
BLAIR          CLOUDY    33  29  86 NW5       30.01S WCI  29
FREMONT        CLOUDY    33  28  79 NW3       30.03S
MILLARD        CLOUDY    36  30  80 NW5       30.03S WCI  32
OFFUTT AFB     CLOUDY    34  26  73 NW5       30.02S WCI  30
PLATTSMOUTH    CLOUDY    34  28  79 NW6       30.03S WCI  29
WAHOO          CLOUDY    35  24  63 NW8       30.03S WCI  29
$$




USA.gov is the U.S. government's official web portal to all federal, state and local government web resources and services.